CYNC

Wemindji Airport

ICAO Code CYNC
IATA Code YNC
Name Wemindji Airport
Location Wemindji, Quebec, CA
Elevation 66 Feet / 20.1 Meters
Latitude 53.01055556
Longitude -78.83111111
METAR CYNC 251700Z AUTO 22006KT 11/04 A2994
Extra information Display Charts
Runway Length Width Surface Elevation
10 3511 ft 100 ft GRAVEL 30 ft
28 3511 ft 100 ft GRAVEL 66 ft